FENGYUN 1C DEB, 41007

Orbit data source: Space-Track

FENGYUN 1C DEB, 41007 is space debris in SSO originally from a launch on Mon, 10 May 1999 UTC launched from the Taiyaun Space Center, China (TSC). Fengyun 1C debris stems from the Chinese weather satellite Fengyun-1C, which was intentionally destroyed by a Chinese anti-satellite missile in 2007. This event dramatically increased the amount of space debris, with thousands of trackable fragments posing hazards to satellites and human spaceflight. The Fengyun 1C debris cloud has become a focal point in discussions about space sustainability and the need for international regulations to prevent the creation of new debris.

Loading next visibility...
Identifier
41007, 1999-025EXM
Orbit
SSO
Country
Flag of CNCN / PRC
Related business
Manufacturer
Unknown
Mission
Spacecraft
Bus & Motor
Unknown
Mass
Unknown
Launch date (UTC)
1999-05-10 (27 years ago)
Launch vehicle
Unknown
Launch site
Taiyaun Space Center, China (TSC)
Object type
Payload
Rocket body
Debris
Shape & HBR
Unknown shape, 1.1 m
Radar Cross Section
Small (<0.1 m²)

Expand to show TLE details & history
Last TLE update: 1 month ago

TLE from 1 month ago
0 FENGYUN 1C DEB
1 41007U 99025EXM 26133.95387880  .00000833  00000-0  68157-3 0  9994
2 41007  99.9534 175.4140 0169927   6.1383 354.1800 13.86329856595078
Epoch: 2026-05-13T22:53Z
TLE epoch observation values (Epoch: 2026-05-13T22:53:35.128Z)
Latitude
-0.00001°
Longitude
-39.68886°
Altitude
820.608 km
Speed
7.505 km/s
True Right ascension
11h 41m 39s
True Declination
0° 00' 00"
Sunlit
Object was in full shadow at epoch
Visualization orbit readout
Latitude
Unknown
Longitude
Unknown
Altitude
Unknown
Speed
Unknown
Apparent Right ascension
Unknown
Apparent Declination
Unknown
Sunlit
N/A
Visualization observer readout
Local Sidereal Time
21:24:00
Azimuth
Unknown
Elevation
Unknown
Doppler factor
Unknown
Orbital elements
Apogee altitude
1,063.121 km
Perigee altitude
814.452 km
Semi-major axis
7,316.923 km
Eccentricity
0.01699
Inclination
99.9534°
RAAN
175.414°
Arg. of periapsis
6.1383°
True anomaly
353.97829°
Mean anomaly
354.18°
Eccentric anomaly
354.07957°
Mean motion
3.46777 °/min
Orbital period
103.81 mins
BSTAR
0.00068157
Loading maneuver chart data...
Computing Atmospheric mass density...
Loading historical data...
Loading historical data...
Loading historical data...
Loading historical data...
Loading historical data...
Loading historical data...
Loading historical data...

Documentation

Showing up to 5 results
|